Погода в Исянове

Россия / Республика Башкортостан     52°48′58″N   58°14′53″E
темп.,
°C
ветер,
м/с
пор.,
м/с
влажн.,
%
обл.,
%
осадки,
мм/ч
давл.,
гПа
погр.,
м
24 сентября, пт
пт2423:00+4вюв3367100 0.0 102852
02:00+4вюв2365100 0.0 102859
05:00+3вюв226597 0.0 102919
08:00+4юв2655100 0.0 1029232
11:00+9юв584099 0.0 1027686
14:00+11ююв7834100 0.0 1026925
17:00+11юв793332 0.0 1025917
20:00+7вюв41141100 0.0 1025289
25 сентября, сб
сб2523:00+6вюв4942100 0.0 1024244
02:00+6вюв384685 0.0 1023207
05:00+4в345480 0.0 102288
08:00+4в3651100 0.0 1021166
11:00+11вюв5102999 0.0 1018678
14:00+15юв81021100 0.0 1016980
17:00+14юв4824100 0.0 1015496
20:00+11в51137100 0.4 1015327
26 сентября, вс
вс2623:00+10в4936100 0.4 1013220
02:00+9всв3540100 0.0 1012119
05:00+8всв4640100 0.0 1011141
08:00+8всв3641100 0.0 1011203
11:00+9в4855100 0.3 1011441
14:00+11в6766100 0.1 1011875
17:00+8в81063100 0.1 1012584
20:00+6всв71360100 0.0 1012568
27 сентября, пн
пн2723:00+5всв81477100 0.6 1012665
02:00+4всв91487100 0.0 1011705
05:00+2св81372100 0.1 1012613
08:00+1всв101573100 0.1 1012724
11:000св101486100 0.5 1012760
14:00+1всв91481100 0.2 1013989
17:00+4всв91458100 0.3 10131351
20:00+2всв91759100 0.0 10141232
28 сентября, вт
вт2823:00+2св101660100 0.0 10151235
02:00+1св10166785 0.0 10161031
05:00−1св10167883 0.0 1018867
08:00−1св91689100 0.1 1020875
11:00+1св101366100 0.2 10211027
14:00+4св9105014 0.0 10211195
17:00+5ссв79455 0.0 10221300
20:00+1ссв4962100 0.0 1024323